Weather History for Cape Girardeau, MO

Change the Weather History Date:

Friday, July 26, 2013

  Actual Average Record
Temperature  
Mean Temperature 70 °F 78 °F  
Max Temperature 82 °F 89 °F 100 °F (1997)
Min Temperature 58 °F 68 °F 55 °F (1962)
Degree Days  
Heating Degree Days 0 0  
Month to date heating degree days 0 0  
Since 1 June heating degree days 0 4  
Since 1 July heating degree days 0 0  
Cooling Degree Days 5 13  
Month to date cooling degree days 307 360  
Year to date cooling degree days 811 824  
Since 1 June cooling degree days 640 672  
Growing Degree Days 20 (Base 50)    
Moisture  
Dew Point 62 °F    
Average Humidity 74    
Maximum Humidity 93    
Minimum Humidity 54    
Precipitation  
Precipitation T in 0.11 in 1.80 in (1998)
Month to date precipitation 0.25 2.84  
Year to date precipitation 24.18 27.51  
Sea Level Pressure  
Sea Level Pressure 30.05 in    
Wind  
Wind Speed 2 mph (WSW)    
Max Wind Speed 9 mph    
Max Gust Speed 13 mph    
Visibility 9 miles    
Events Rain    
T = Trace of Precipitation, MM = Missing Value Source: NWS Daily Summary

Daily Weather History Graph

Daily Weather History Graph

Search for Another Location

Airport:

Trip Planner

Search our weather history database for the weather conditions in past years. The results will help you decide how hot, cold, wet, or windy it might be!

Date:

Astronomy

Jul. 26, 2013 Rise Set
Actual Time 5:58 AM CDT 8:10 PM CDT
Civil Twilight 5:29 AM CDT 8:40 PM CDT
Nautical Twilight 4:53 AM CDT 9:15 PM CDT
Astronomical Twilight 4:13 AM CDT 9:54 PM CDT
Moon 10:33 PM CDT (7/26) 10:26 AM CDT (7/26)
Length of Visible Light 15h 10m
Length of Day
14h 12m
Waning Gibbous, 80% of the Moon is Illuminated
Jul 26
Waning Gibbous
Jul 29
Last Quarter
Aug 6
New
Aug 14
First Quarter
Aug 20
Full

Hourly Weather History & Observations

Time (CDT) Temp. Heat Index Dew Point Humidity Pressure Visibility Wind Dir Wind Speed Gust Speed Precip Events Conditions
12:53 AM 62.1 °F - 59.0 °F 90% 30.07 in 10.0 mi ESE 3.5 mph - N/A   Clear
1:53 AM 62.1 °F - 60.1 °F 93% 30.07 in 10.0 mi Calm Calm - N/A   Clear
2:53 AM 59.0 °F - 57.9 °F 96% 30.06 in 10.0 mi WNW 3.5 mph - N/A   Clear
3:53 AM 60.1 °F - 57.9 °F 93% 30.06 in 10.0 mi WSW 3.5 mph - N/A   Clear
4:53 AM 59.0 °F - 57.9 °F 96% 30.05 in 10.0 mi Calm Calm - N/A   Clear
5:41 AM 59.0 °F - 57.2 °F 94% 30.07 in 1.8 mi Calm Calm - N/A   Clear
5:50 AM 59.0 °F - 57.2 °F 94% 30.07 in 3.0 mi Calm Calm - N/A   Clear
5:53 AM 59.0 °F - 57.9 °F 96% 30.06 in 6.0 mi Calm Calm - N/A   Clear
5:56 AM 59.0 °F - 57.2 °F 94% 30.07 in 1.8 mi Calm Calm - N/A   Clear
6:11 AM 59.0 °F - 57.2 °F 94% 30.07 in 2.5 mi Calm Calm - N/A   Clear
6:21 AM 60.8 °F - 57.2 °F 88% 30.07 in 7.0 mi Calm Calm - N/A   Clear
6:53 AM 62.1 °F - 60.1 °F 93% 30.06 in 9.0 mi Calm Calm - N/A   Clear
7:53 AM 66.0 °F - 63.0 °F 90% 30.07 in 10.0 mi Calm Calm - N/A   Clear
8:53 AM 73.0 °F - 63.0 °F 71% 30.07 in 10.0 mi Calm Calm - N/A   Scattered Clouds
9:53 AM 77.0 °F - 61.0 °F 58% 30.07 in 10.0 mi Variable 4.6 mph - N/A   Mostly Cloudy
10:53 AM 78.1 °F - 62.1 °F 58% 30.06 in 10.0 mi WSW 6.9 mph - N/A   Clear
11:53 AM 79.0 °F - 62.1 °F 56% 30.06 in 10.0 mi Variable 4.6 mph - N/A   Scattered Clouds
12:53 PM 80.1 °F 81.5 °F 63.0 °F 56% 30.05 in 10.0 mi SSW 6.9 mph - N/A   Scattered Clouds
1:53 PM 78.1 °F - 63.0 °F 60% 30.05 in 10.0 mi SW 5.8 mph - N/A   Mostly Cloudy
2:53 PM 80.1 °F 81.5 °F 63.0 °F 56% 30.04 in 10.0 mi West 4.6 mph - N/A   Partly Cloudy
3:53 PM 78.1 °F - 64.9 °F 64% 30.04 in 10.0 mi West 4.6 mph - N/A   Mostly Cloudy
4:53 PM 75.0 °F - 68.0 °F 79% 30.04 in 10.0 mi WNW 5.8 mph - 0.00 in Rain Light Rain
5:53 PM 73.0 °F - 68.0 °F 84% 30.04 in 10.0 mi West 4.6 mph - 0.00 in   Mostly Cloudy
6:53 PM 72.0 °F - 68.0 °F 87% 30.02 in 10.0 mi Calm Calm - 0.00 in Rain Light Rain
7:53 PM 71.1 °F - 68.0 °F 90% 29.99 in 10.0 mi Calm Calm - 0.00 in   Partly Cloudy
8:53 PM 71.1 °F - 69.1 °F 93% 29.99 in 10.0 mi Calm Calm - N/A   Mostly Cloudy
9:53 PM 69.1 °F - 66.9 °F 93% 29.99 in 10.0 mi Calm Calm - N/A   Mostly Cloudy
10:53 PM 69.1 °F - 66.9 °F 93% 29.97 in 10.0 mi Calm Calm - N/A   Overcast
11:53 PM 69.1 °F - 66.9 °F 93% 29.98 in 8.0 mi Calm Calm - N/A   Overcast